Weather History for GMAD - February, 2013

Change the Weather History Date:

Tuesday, February 5, 2013

  Actual Average Record
Temperature  
Mean Temperature 56 °F -  
Max Temperature 72 °F - - ()
Min Temperature 41 °F - - ()
Degree Days  
Heating Degree Days 8    
Growing Degree Days 6 (Base 50)    
Moisture  
Dew Point 39 °F    
Average Humidity 56    
Maximum Humidity 88    
Minimum Humidity 13    
Precipitation  
Precipitation 0.00 in - - ()
Sea Level Pressure  
Sea Level Pressure 30.30 in    
Wind  
Wind Speed 4 mph ()    
Max Wind Speed 16 mph    
Max Gust Speed -    
Visibility 5.5 miles    
Events      
T = Trace of Precipitation, MM = Missing Value Source: Averaged Metar Reports

Daily Weather History Graph

Daily Weather History Graph

Search for Another Location

Airport or City:

Trip Planner

Search our weather history database for the weather conditions in past years. The results will help you decide how hot, cold, wet, or windy it might be!

Date:

Astronomy

Feb. 05, 2013 Rise Set
Actual Time 7:25 AM WET 6:17 PM WET
Civil Twilight 7:00 AM WET 6:42 PM WET
Nautical Twilight 6:32 AM WET 7:11 PM WET
Astronomical Twilight 6:04 AM WET 7:39 PM WET
Moon 2:46 AM WET (2/5) 1:30 PM WET (2/5)
Length of Visible Light 11h 41m
Length of Day
10h 52m
Waning Crescent, 29% of the Moon is Illuminated
Feb 5
Waning Crescent
Feb 10
New
Feb 17
First Quarter
Feb 25
Full
Mar 4
Last Quarter

Hourly Weather History & Observations

Time (WET) Temp. Windchill Dew Point Humidity Pressure Visibility Wind Dir Wind Speed Gust Speed Precip Events Conditions
12:00 AM 49 °F - 40 °F 64% 30.33 in 6 mi Calm Calm - -  
12:00 AM 48.2 °F - 41.0 °F 76% 30.30 in - Calm Calm - N/A   Clear
1:00 AM 48.2 °F - 39.2 °F 71% 30.30 in - Calm Calm - N/A   Unknown
2:00 AM 48.2 °F - 41.0 °F 76% 30.30 in 6.2 mi East 4.6 mph - N/A   Unknown
3:00 AM 44 °F - 38 °F 71% 30.31 in 6 mi Calm Calm - -  
3:00 AM 44.6 °F 43.1 °F 39.2 °F 81% 30.30 in 6.2 mi ENE 3.5 mph - N/A   Unknown
4:00 AM 44.6 °F - 37.4 °F 76% 30.30 in 6.2 mi Calm Calm - N/A   Unknown
5:00 AM 44.6 °F - 37.4 °F 76% 30.30 in - Calm Calm - N/A   Clear
6:00 AM 42 °F - 37 °F 75% 30.34 in 6 mi ENE 4.6 mph - -  
6:00 AM 42.8 °F 40.1 °F 37.4 °F 81% 30.30 in 6.2 mi ENE 4.6 mph - N/A   Unknown
7:00 AM 41.0 °F 37.1 °F 35.6 °F 81% 30.33 in - East 5.8 mph - N/A   Clear
8:00 AM 42.8 °F 40.1 °F 37.4 °F 81% 30.36 in - ENE 4.6 mph - N/A   Clear
9:00 AM 51 °F - 37 °F 47% 30.38 in 5 mi ENE 6.9 mph - -  
9:00 AM 50.0 °F - 37.4 °F 62% 30.36 in 5.0 mi ENE 6.9 mph - N/A   Unknown
10:00 AM 59.0 °F - 37.4 °F 45% 30.36 in - East 5.8 mph - N/A   Clear
11:00 AM 64.4 °F - 35.6 °F 34% 30.36 in 5.0 mi ENE 5.8 mph - N/A   Unknown
12:00 PM 72 °F - 32 °F 13% 30.35 in 5 mi Calm Calm - -  
12:00 PM 71.6 °F - 32.0 °F 23% 30.33 in 5.0 mi Calm Calm - N/A   Unknown
1:00 PM 71.6 °F - 30.2 °F 22% 30.30 in 5.0 mi Variable 2.3 mph - N/A   Unknown
2:00 PM 71.6 °F - 32.0 °F 23% 30.27 in - West 11.5 mph - N/A   Clear
3:00 PM 70 °F - 36 °F 18% 30.28 in 6 mi West 11.5 mph - -  
3:00 PM 69.8 °F - 35.6 °F 28% 30.27 in 6.2 mi West 11.5 mph - N/A   Unknown
4:00 PM 68.0 °F - 39.2 °F 35% 30.27 in - West 13.8 mph - N/A   Clear
5:00 PM 66.2 °F - 37.4 °F 35% 30.24 in - West 16.1 mph - N/A   Clear
6:00 PM 65 °F - 40 °F 28% 30.25 in 6 mi WSW 12.7 mph - -  
6:00 PM 64.4 °F - 41.0 °F 42% 30.24 in 5.0 mi WSW 12.7 mph - N/A   Unknown
7:00 PM 60.8 °F - 42.8 °F 52% 30.24 in - SSW 8.1 mph - N/A   Clear
8:00 PM 57.2 °F - 46.4 °F 67% 30.24 in - South 8.1 mph - N/A   Unknown
9:00 PM 57 °F - 47 °F 61% 30.27 in 5 mi South 9.2 mph - -  
9:00 PM 57.2 °F - 46.4 °F 67% 30.24 in 5.0 mi South 9.2 mph - N/A   Unknown
10:00 PM 55.4 °F - 48.2 °F 77% 30.27 in 5.0 mi South 6.9 mph - N/A   Unknown
11:00 PM 53.6 °F - 50.0 °F 88% 30.27 in 5.0 mi South 1.2 mph - N/A   Unknown